Regional Weather Roundup
Issued by NWS Newport/Morehead, NC

Home | Current Version | Previous Version | Text Only | Print | Product List | Glossary On
Versions: 1 2 3 4 5 6 7 8 9 10 11 12 13 14 15 16 17 18 19 20 21 22 23 24 25 26 27 28 29 30 31 32 33 34 35 36 37 38 39 40 41 42 43 44 45 46 47 48 49 50
000
ASUS42 KMHX 031325
RWRMHX
WEATHER ROUNDUP FOR EASTERN NORTH CAROLINA
NATIONAL WEATHER SERVICE NEWPORT/MOREHEAD CITY NC
900 AM EDT WED JUN 03 2015

NOTE: "FAIR" INDICATES FEW OR NO CLOUDS BELOW 12,000 FEET
WITH NO SIGNIFICANT WEATHER AND/OR OBSTRUCTIONS TO VISIBILITY

NCZ015>017-031-032-045>047-102-103-031400-
NORTH COAST

CITY           SKY/WX    TMP DP  RH WIND       PRES   REMARKS
EDENTON        RAIN      64  64  98 NE3       30.07S
ELIZABETH CITY LGT RAIN  66  65  96 N9        30.08R
KITTY HAWK     CLOUDY    65  65  99 N6        30.05R
MANTEO         RAIN      66  66  99 N10       30.06S

$$

NCZ045>047-081-094-103-104-031400-
CENTRAL COAST

CITY           SKY/WX    TMP DP  RH WIND       PRES   REMARKS
FRISCO         CLOUDY    75  68  78 SW9       30.03S
SWANQUARTER      N/A     70 N/A N/A NW1G10    30.03R

$$

NCZ095-097-098-100-101-031400-
SOUTHERN COAST

CITY           SKY/WX    TMP DP  RH WIND       PRES   REMARKS
BEAUFORT       RAIN      69  68  96 N8        30.04F FOG
CEDAR ISLAND     N/A     72 N/A N/A W12G17    30.09S
JACKSONVILLE   LGT RAIN  69  67  93 SE7       30.05R
PINEY ISLAND   RAIN     N/A N/A N/A NW14      30.05R
WILMINGTON     LGT RAIN  69  67  93 E5        30.02S


$$

NCZ011>013-027>030-043-044-078>080-089-090>093-098-031400-
COASTAL PLAIN

CITY           SKY/WX    TMP DP  RH WIND       PRES   REMARKS
AHOSKIE        LGT RAIN  64  63  96 NE7       30.07R
CLINTON        DRIZZLE   69  69 100 CALM      30.03S
ELIZABETHTOWN  LGT RAIN  67  67 100 CALM      30.02R
GOLDSBORO      CLOUDY    70  70 100 E9        30.02R
GREENVILLE     DRIZZLE   68  68 100 E5        30.06R
HAVELOCK       RAIN      69  67  93 NE9       30.06R
KENANSVILLE      N/A     69  68  96 E3        30.05R
KINSTON        CLOUDY    70  68  94 E7        30.04R
NEW BERN       LGT RAIN  69  67  93 E7        30.06R
RICHLANDS      CLOUDY    68  64  88 E7        30.05R
ROCKY MOUNT    CLOUDY    66  65  96 NE8       30.06R FOG
WASHINGTON     LGT RAIN  67  66  97 E8        30.08R
WHITEVILLE     DRIZZLE   68  67  94 CALM      30.01R

$$

AMZ130-135-150-152-154-156-158-170-250-252-270-ANZ085-086-088-633-658-670-031400-
MARINE OBSERVATIONS

STATION/POSITION TIME  TEMP    WIND        PRES    WAVE   SWELL
                       AIR SEA DIR/SP/G            HT/PER HT/PER
                 (UTC) (F)     (DEG/KT/KT) (MB)    (FT/S) (FT/S)
CHESAPEAKE LIGHT 1300   67      30/ 19/ 22 1018.4
64 E VA BEACH    1250   74 74   60/  2/  4 1017.0    4/ 7   3/ 7
DUCK             1300   62 58  350/ 11/ 12 1017.0
2 E DUCK         1311      67                N/A     4/ 6
OREGON INLET     1300   72 69  360/  9/ 15 1017.2
13E OREGON INLT  1300      77                N/A     4/ 8
HATTERAS CG      1300   74 77  240/  5/ 10 1016.7
DIAMOND BUOY     1250   76 81  240/  6/  8 1016.7    3/ 8   3/ 8
CAPE LOOKOUT     1300   70     300/  9/ 10 1017.1
BEAUFORT LAB     1300   69 78   10/  6/  7 1016.6
30 SE NEW RVR IN NOT AVBL
27 SE WRIGHTSVLE 1300      77   20/ 10/ 12   N/A
5 SE WRIGHTSVLE  1208   71 78  280/  6/ 10 1016.7
225 S CAPE HAT   1250   77 76  170/  8/ 10 1016.8    3/ 8   3/ 8
41 SE CHARLESTON 1250   74 80  330/  2/  4 1015.4    3/ 8   2/ 8

$$


USA.gov is the U.S. government's official web portal to all federal, state and local government web resources and services.